Miscellaneous Local Product
Issued by NWS North Platte, NE

Home | Current Version | Previous Version | Graphics & Text | Print | Product List | Glossary On
Versions: 1 2 3 4 5 6 7 8 9 10 11 12 13 14 15 16 17 18 19 20 21 22 23 24 25 26 27 28 29 30 31 32 33 34 35 36 37 38 39 40 41 42 43 44 45 46 47 48 49 50
000
AXUS43 KLBF 172110
MISLBF


WESTERN AND NORTH CENTRAL NEBRASKA HOURLY WEATHER ROUNDUP
NATIONAL WEATHER SERVICE NORTH PLATTE NE
400 PM CDT FRI APR 17 2015

***STATIONS NOT REPORTING VARIABLES SUCH AS SKY/WEATHER OR
PRESSURE ARE PROVIDED BY THE NEBRASKA DEPARTMENT OF
ROADS...RAWS...AND APRS NETWORKS...AND ARE NOT UNDER
NATIONAL WEATHER SERVICE QUALITY CONTROL***

...OBSERVATIONS IN AND NEAR THE EASTERN PANHANDLE OF NEBRASKA...

CITY           SKY/WX    TMP DP  RH WIND       PRES   REMARKS
PINE RIDGE     CLOUDY    50  45  83 N10       30.11F
CHADRON        CLOUDY    47  44  90 N14       30.11F
ALLIANCE       LGT RAIN  46  45  96 NE18      30.05F FOG
SIDNEY         LGT RAIN  51  49  92 SE15      30.01S
WHITECLAY        N/A     47  43  88 N7          N/A
CRESCENT LAKE    N/A     49  48  98 NE12        N/A
$$

...OBSERVATIONS IN NORTH CENTRAL NEBRASKA...

CITY           SKY/WX    TMP DP  RH WIND       PRES   REMARKS
VALENTINE      CLOUDY    54  50  86 NE10      30.10F
THEDFORD       RAIN      55  54  96 E13       30.07F
AINSWORTH      DRIZZLE   55  53  94 NE12      30.10S
O`NEILL        CLOUDY    64  51  61 N6        30.08F
ORD            LGT RAIN  59  56  89 NE5       30.04F FOG
BROKEN BOW     CLOUDY    60  56  86 E13       30.04F
VALENTINE NWR    N/A     53  53  99 NE9         N/A
SPRINGVIEW       N/A     56  52  86 CALM        N/A
ROSE             N/A     57  57  99 N6          N/A
NEWPORT          N/A     58  54  85 NW6         N/A
SARGENT          N/A     57  55  94 E5G12       N/A
COMSTOCK         N/A     66  63  88 E12         N/A
EWING            N/A     66  51  58 NE6         N/A
$$

...OBSERVATIONS IN SOUTHWEST NEBRASKA AND FAR NORTHEAST COLORADO...

CITY           SKY/WX    TMP DP  RH WIND       PRES   REMARKS
WRAY           MOCLDY    60  51  72 E15G24    29.96F
HOLYOKE        FAIR      61  50  67 SE17      29.98F
IMPERIAL       LGT RAIN  58  52  80 SE15      29.99F
OGALLALA       CLOUDY    55  53  92 E10G16    30.02S
NORTH PLATTE   CLOUDY    60  54  80 SE14      30.02F
MCCOOK         CLOUDY    66  52  60 SE14      29.98F
LEXINGTON      MOSUNNY   63  58  84 E12       30.02F
SUTHERLAND       N/A     52  50  93 E15         N/A
BRADY            N/A     60  54  82 N3          N/A
$$

...NORTH PLATTE AREA...

CITY           SKY/WX    TMP DP  RH WIND       PRES   REMARKS
AIRPORT        CLOUDY    60  54  80 SE14      30.02F
DOWNTOWN         N/A     59  54  84 E5G12       N/A
$$

...SOME WEATHER OBSERVATIONS FROM AROUND THE REGION...

CITY           SKY/WX    TMP DP  RH WIND       PRES   REMARKS
DENVER         PTSUNNY   48  41  76 W7        29.96F
LARAMIE        SNOW      32  29  88 NE21G29   30.02R VSB 1/2 WCI  20
CHEYENNE       HVY RAIN  34  32  92 N16G26    30.04R FOG     WCI  24
SCOTTSBLUFF    LGT RAIN  48  47  96 NE29G38   30.03F FOG
RAPID CITY     CLOUDY    58  30  34 E8        30.14F
PIERRE         CLOUDY    70  31  23 NE5       30.08F
WINNER         CLOUDY    69  40  34 E9        30.09F
SIOUX FALLS    PTSUNNY   75  41  29 CALM      30.04F
OMAHA          CLOUDY    75  51  43 E7        30.00F
GRAND ISLAND   PTSUNNY   67  56  67 E10       30.02F
KANSAS CITY    CLOUDY    75  55  49 SE10      29.96F
WICHITA        PTSUNNY   73  56  54 SW3       29.94F
HAYS           MOSUNNY   72  50  46 SE12G21   29.95F
LIBERAL        PTSUNNY   72  52  49 S12G17    29.93F
GOODLAND       MOSUNNY   65  45  48 SE18G24   29.95F
$$



USA.gov is the U.S. government's official web portal to all federal, state and local government web resources and services.